Date String (YYYY-MM-DD hh:mm:ss) UTC,Instrument flags,Ambient pressure (hPa),Sample flow (lpm),Bypass flow (lpm),Sample temperature (°C),Ambient temperature (°C),ASC tube jacket temperature (°C),LED temperature (°C),Box temperature (°C),Sample RH (%),Span deviation,Mass concentration (μg/m³),Mass concentration (μg/m³),Mass concentration (μg/m³)
DateTimeUTC,F1_M11,P_M11,Q1_M11,Q2_M11,T1_M11,T2_M11,T3_M11,T4_M11,T5_M11,U1_M11,ZSPAN_M11,X0_M11,X2_M11,X1_M11
2022-01-12 08:00:00,,0830.0,5.03,0.00,23.3,22.4,00.0,32.4,25.0,08.8,0000.0,0004.59,0000.12,0000.01
2022-01-12 08:01:00,,0830.1,4.99,0.00,23.3,22.4,00.0,32.3,25.0,08.6,0000.0,0004.41,0000.11,0000.01
2022-01-12 08:02:00,,0830.1,5.00,0.00,23.3,22.5,00.0,32.3,25.0,08.9,0000.0,0003.97,0000.12,0000.01
2022-01-12 08:03:00,,0830.0,5.01,0.00,23.3,22.5,00.0,32.3,25.0,08.7,0000.0,0003.21,0000.11,0000.02
2022-01-12 08:04:00,,0830.0,4.99,0.00,23.3,22.4,00.0,32.3,25.0,08.6,0000.0,0003.07,0000.11,0000.02
2022-01-12 08:05:00,,0830.0,5.00,0.00,23.2,22.4,00.0,32.3,25.0,08.7,0000.0,0001.68,0000.12,0000.01
2022-01-12 08:06:00,,0830.0,4.98,0.00,23.2,22.4,00.0,32.3,24.9,08.7,0000.0,0001.14,0000.10,0000.01
2022-01-12 08:07:00,,0830.1,5.01,0.00,23.2,22.3,00.0,32.3,24.9,08.7,0000.0,0000.97,0000.10,0000.01
2022-01-12 08:08:00,,0830.1,5.00,0.00,23.2,22.3,00.0,32.3,24.9,08.6,0000.0,0001.80,0000.13,0000.01
2022-01-12 08:09:00,,0830.1,4.99,0.00,23.1,22.2,00.0,32.3,24.8,08.9,0000.0,0002.07,0000.12,0000.02
2022-01-12 08:10:00,,0830.0,5.00,0.00,23.1,22.1,00.0,32.2,24.8,09.0,0000.0,0001.82,0000.13,0000.02
2022-01-12 08:11:00,,0830.1,5.01,0.00,23.0,22.1,00.0,32.2,24.7,09.0,0000.0,0001.55,0000.13,0000.02
2022-01-12 08:12:00,,0830.1,4.99,0.00,23.0,22.0,00.0,32.2,24.7,08.9,0000.0,0001.57,0000.12,0000.02
2022-01-12 08:13:00,,0830.1,5.00,0.00,23.0,22.0,00.0,32.2,24.7,08.8,0000.0,0001.60,0000.12,0000.02
2022-01-12 08:14:00,,0830.1,5.02,0.00,23.0,22.0,00.0,32.1,24.6,08.8,0000.0,0001.62,0000.12,0000.02
2022-01-12 08:15:00,,0830.1,4.99,0.00,22.9,21.9,00.0,32.1,24.6,08.8,0000.0,0001.61,0000.11,0000.02
2022-01-12 08:16:00,,0830.1,5.00,0.00,22.9,21.9,00.0,32.1,24.6,08.7,0000.0,0001.59,0000.10,0000.02
2022-01-12 08:17:00,,0830.1,4.99,0.00,22.9,21.9,00.0,32.1,24.6,08.8,0000.0,0001.61,0000.11,0000.02
2022-01-12 08:18:00,,0830.1,5.03,0.00,22.8,21.9,00.0,32.1,24.5,08.9,0000.0,0002.50,0000.11,0000.02
2022-01-12 08:19:00,,0830.1,4.98,0.00,22.8,21.9,00.0,32.0,24.5,08.9,0000.0,0002.84,0000.08,0000.01
2022-01-12 08:20:00,,0830.1,5.02,0.00,22.8,21.9,00.0,32.0,24.6,08.8,0000.0,0002.49,0000.08,0000.01
2022-01-12 08:21:00,,0830.0,4.98,0.00,22.8,22.0,00.0,32.0,24.6,09.0,0000.0,0002.30,0000.06,0000.01
2022-01-12 08:22:00,,0830.0,5.00,0.00,22.9,22.1,00.0,32.0,24.6,09.1,0000.0,0002.22,0000.04,0000.00
2022-01-12 08:23:00,,0830.0,5.00,0.00,22.9,22.1,00.0,32.0,24.6,09.0,0000.0,0002.17,0000.03,0000.00
2022-01-12 08:24:00,,0830.0,4.99,0.00,22.9,22.2,00.0,32.0,24.7,08.9,0000.0,0003.08,0000.02,0000.00
2022-01-12 08:25:00,,0830.0,5.00,0.00,22.9,22.2,00.0,32.0,24.7,09.0,0000.0,0003.31,0000.02,0000.00
2022-01-12 08:26:00,,0830.0,5.01,0.00,22.9,22.2,00.0,32.0,24.7,09.0,0000.0,0003.38,0000.03,0000.00
2022-01-12 08:27:00,,0830.0,4.99,0.00,22.9,22.3,00.0,32.0,24.7,09.0,0000.0,0003.38,0000.04,0000.00
2022-01-12 08:28:00,,0830.0,5.00,0.00,23.0,22.3,00.0,32.0,24.8,08.9,0000.0,0003.35,0000.03,0000.00
2022-01-12 08:29:00,,0830.0,5.01,0.00,23.0,22.3,00.0,32.0,24.8,08.5,0000.0,0002.11,0000.03,0000.00
2022-01-12 08:30:00,,0829.9,4.99,0.00,22.9,22.2,00.0,32.0,24.7,08.4,0000.0,0001.37,0000.04,0000.01
2022-01-12 08:31:00,,0830.0,5.00,0.00,22.9,22.2,00.0,32.0,24.7,08.2,0000.0,0001.40,0000.06,0000.01
2022-01-12 08:32:00,,0830.0,5.01,0.00,22.9,22.1,00.0,32.0,24.7,08.1,0000.0,0001.40,0000.06,0000.01
2022-01-12 08:33:00,,0830.0,5.00,0.00,22.9,22.1,00.0,31.9,24.6,07.8,0000.0,0001.42,0000.06,0000.01
2022-01-12 08:34:00,,0830.0,4.99,0.00,22.9,22.1,00.0,31.9,24.6,07.7,0000.0,0001.49,0000.08,0000.01
2022-01-12 08:35:00,,0829.9,5.01,0.00,22.9,22.2,00.0,31.9,24.6,07.7,0000.0,0000.44,0000.09,0000.02
2022-01-12 08:36:00,,0829.9,5.01,0.00,22.9,22.2,00.0,31.9,24.7,07.7,0000.0,0000.93,0000.10,0000.02
2022-01-12 08:37:00,,0829.8,4.99,0.00,22.9,22.2,00.0,31.9,24.7,07.6,0000.0,0000.94,0000.09,0000.02
2022-01-12 08:38:00,,0829.8,5.01,0.00,22.9,22.2,00.0,31.9,24.7,07.2,0000.0,0001.20,0000.09,0000.02
2022-01-12 08:39:00,,0829.8,4.99,0.00,22.9,22.2,00.0,31.9,24.7,07.4,0000.0,0001.27,0000.10,0000.02
2022-01-12 08:40:00,,0829.8,5.02,0.00,22.9,22.1,00.0,31.9,24.7,07.5,0000.0,0001.30,0000.10,0000.02
2022-01-12 08:41:00,,0829.7,5.00,0.00,22.9,22.1,00.0,31.9,24.6,07.4,0000.0,0001.54,0000.08,0000.02
2022-01-12 08:42:00,,0829.7,4.99,0.00,22.9,22.0,00.0,31.9,24.6,07.3,0000.0,0002.24,0000.08,0000.01
2022-01-12 08:43:00,,0829.7,5.01,0.00,22.8,22.0,00.0,31.9,24.5,07.7,0000.0,0002.86,0000.09,0000.02
2022-01-12 08:44:00,,0829.7,5.00,0.00,22.8,22.0,00.0,31.9,24.5,07.8,0000.0,0003.37,0000.09,0000.01
2022-01-12 08:45:00,,0829.7,4.99,0.00,22.8,22.0,00.0,31.9,24.5,07.8,0000.0,0003.34,0000.08,0000.01
2022-01-12 08:46:00,,0829.7,5.01,0.00,22.8,22.0,00.0,31.9,24.4,08.5,0000.0,0003.26,0000.07,0000.01
2022-01-12 08:47:00,,0829.7,4.99,0.00,22.8,22.0,00.0,31.9,24.5,09.1,0000.0,0002.71,0000.06,0000.01
2022-01-12 08:48:00,,0829.7,5.01,0.00,22.8,22.0,00.0,31.9,24.5,08.9,0000.0,0002.63,0000.06,0000.01
2022-01-12 08:49:00,,0829.7,4.99,0.00,22.8,22.1,00.0,31.9,24.6,08.3,0000.0,0002.35,0000.06,0000.01
2022-01-12 08:50:00,,0829.7,5.00,0.00,22.8,22.1,00.0,31.8,24.6,08.3,0000.0,0002.30,0000.06,0000.01
2022-01-12 08:51:00,,0829.7,5.01,0.00,22.8,22.1,00.0,31.8,24.6,08.5,0000.0,0002.27,0000.06,0000.01
2022-01-12 08:52:00,,0829.8,4.99,0.00,22.8,22.1,00.0,31.8,24.6,08.6,0000.0,0002.00,0000.06,0000.01
2022-01-12 08:53:00,,0829.7,5.01,0.00,22.8,22.1,00.0,31.8,24.6,07.9,0000.0,0001.40,0000.06,0000.01
2022-01-12 08:54:00,,0829.7,4.99,0.00,22.9,22.1,00.0,31.8,24.6,07.7,0000.0,0000.83,0000.05,0000.01
2022-01-12 08:55:00,,0829.6,5.01,0.00,22.9,22.1,00.0,31.9,24.6,07.7,0000.0,0000.30,0000.06,0000.01
2022-01-12 08:56:00,,0829.6,4.99,0.00,22.8,22.1,00.0,31.9,24.6,07.8,0000.0,0000.25,0000.06,0000.01
2022-01-12 08:57:00,,0829.6,4.99,0.00,22.8,22.0,00.0,31.9,24.5,07.8,0000.0,0000.28,0000.07,0000.01
2022-01-12 08:58:00,,0829.6,5.01,0.00,22.8,22.0,00.0,31.9,24.5,07.7,0000.0,0000.60,0000.08,0000.00
2022-01-12 08:59:00,,0829.7,5.01,0.00,22.8,21.9,00.0,31.8,24.5,07.8,0000.0,0000.73,0000.09,0000.00
